[[{"header":{"parameterUnit":"m.s-1","parameterCategory":1,"la1":30.2991,"la2":30.254,"lo1":-89.0895,"lo2":-89.0444,"dy":0.0017,"dx":0.0017,"nx":28,"ny":28,"refTime":"2024-07-31T03:00:00:Z","depth":0,"parameterNumber":2,"parameterNumberName":"U-component_of_WINDS"},"data":[0,0,0,0,0,0,0,0,0,0,0,0,0,0,0,0,0,0,0,0,0,0,0,0,0,0,0,0,0,0,0,0,0,0,0,0,0,0,0,0,0,0,0,0,0,0,0,0,0,0,0,0,0,0,0,0,0,0,2.1972,2.1972,0,2.1938,2.1938,2.1937,2.1832,2.183,2.1828,2.1826,2.1795,2.1796,2.1797,0,0,0,0,0,0,0,0,0,0,0,0,0,2.1947,2.1948,2.1972,2.1972,2.1971,2.1938,2.1938,2.1937,2.1833,2.183,2.1827,2.1824,2.1794,2.1796,2.1797,0,0,0,0,0,0,0,0,0,0,0,0,0,2.194,2.1948,2.1972,2.1915,2.191,2.1938,2.1938,2.1937,2.1833,2.183,2.1826,2.1823,2.1794,2.1796,2.1798,2.188,0,0,2.1804,2.1805,0,0,0,0,0,0,0,0,2.1941,2.1941,2.1924,2.1919,2.1913,2.1886,2.1917,2.1918,2.1834,2.1862,2.1825,2.1821,2.1828,2.1827,2.1829,2.1879,2.1878,2.1804,2.1805,2.1806,2.1807,0,0,0,0,0,0,0,2.1941,2.1942,2.1959,2.1924,2.1917,2.1891,2.1886,2.1917,2.1866,2.186,2.1852,2.1849,2.1824,2.1827,2.1827,2.1877,2.1804,2.1806,2.1807,2.1808,2.1989,2.1992,0,0,0,0,0,0,2.195,2.1943,2.196,2.1958,2.1918,2.1895,2.1889,2.1898,2.1865,2.1856,2.1852,2.1844,2.1825,2.1825,2.1826,2.1916,2.1806,2.1808,2.1809,2.1985,2.1989,2.1993,0,0,0,0,0,0,2.195,2.1952,2.1961,2.1948,2.1947,2.1899,2.191,2.1899,2.1901,2.1859,2.185,2.1864,2.1822,2.1823,2.1866,2.1914,2.1809,2.1811,2.1981,2.1986,2.1991,2.2102,0,0,0,0,0,0,2.1949,2.1953,2.1984,2.195,2.1949,2.2003,2.1913,2.1901,2.1905,2.1894,2.1868,2.186,2.182,2.1864,2.1868,2.1915,2.1812,2.1976,2.1983,2.199,2.2094,2.211,2.2124,0,0,0,0,0,2.1949,2.2018,2.1986,2.1989,2.1986,2.2006,2.2005,2.1956,2.1909,2.1939,2.1911,2.1861,2.1909,2.1869,2.1873,2.1922,2.1973,2.1981,2.1989,2.2087,2.2107,2.2124,0,0,0,0,0,0,2.2062,2.2013,2.1977,2.2037,2.2026,2.1988,2.2025,2.198,2.1983,2.1973,2.1913,2.1908,2.1959,2.1945,2.1902,2.1997,2.1932,2.1941,2.2005,2.2024,2.2039,2.2041,2.1814,0,0,0,0,0,2.2093,2.2112,2.2069,2.2126,2.2122,2.2075,2.2081,2.2044,2.2031,2.2026,2.2002,2.1992,2.2003,2.2013,2.2022,2.2091,2.2082,2.2126,2.2142,2.2154,2.2163,2.2194,2.2212,2.202,2.202,2.202,0,0,2.2159,2.2135,2.2151,2.2148,2.2135,2.2156,2.2072,2.2098,2.2113,2.2031,2.2069,2.205,2.2035,2.209,2.2114,2.208,2.2214,2.2165,2.2175,2.2177,2.2204,2.2223,2.2239,2.2025,2.2024,2.2023,0,0,2.2289,2.2274,2.2318,2.2305,2.2286,2.2253,2.2264,2.2232,2.2215,2.2252,2.219,2.2207,2.223,2.222,2.2218,2.234,2.2293,2.2345,2.2426,2.2457,2.2472,2.2485,2.2526,2.2542,2.2354,2.2354,2.2355,0,2.2374,2.2402,2.2347,2.2375,2.2375,2.2299,2.2342,2.2334,2.2319,2.232,2.2283,2.2307,2.2292,2.2342,2.2371,2.2373,2.2382,2.2348,2.2474,2.2487,2.2498,2.2536,2.2552,2.2361,2.236,2.2359,2.2359,0,2.2505,2.2525,2.2563,2.2548,2.2552,2.2588,2.2538,2.2548,2.251,2.2481,2.2518,2.2497,2.2498,2.2508,2.2472,2.2552,2.2531,2.2485,2.2418,2.2524,2.2558,2.2573,2.237,2.2367,2.2366,2.2364,0,0,2.2707,2.2657,2.2672,2.2662,2.2633,2.2648,2.268,2.2679,2.2688,2.268,2.2704,2.2723,2.2679,2.2677,2.264,2.2667,2.2761,2.2617,2.2616,2.2642,2.2844,2.2877,2.2895,2.273,2.2732,2.2734,2.2844,0,2.2827,2.2878,2.2827,2.2887,2.2903,2.283,2.2858,2.2843,2.2816,2.2826,2.2797,2.281,2.2753,2.275,2.2774,2.2745,2.2801,2.2736,2.275,2.2751,2.2754,2.2913,2.2949,2.3054,2.2858,2.286,2.2862,0,2.2975,2.297,2.3032,2.2995,2.3,2.3025,2.3018,2.3029,2.301,2.2988,2.2984,2.2937,2.2965,2.29,2.2936,2.2894,2.2896,2.2883,2.2885,2.2883,2.2812,2.2914,2.3087,2.3102,2.2883,2.2881,2.288,0,2.3112,2.3122,2.3158,2.3152,2.3112,2.313,2.3114,2.3091,2.3093,2.3087,2.3087,2.3087,2.3086,2.3085,2.3039,2.2997,2.308,2.3012,2.3061,2.3063,2.3081,2.3081,2.3255,2.3087,2.3087,2.3087,2.3086,0,2.3251,2.3291,2.3218,2.3241,2.3282,2.3223,2.3266,2.3243,2.3222,2.3238,2.3176,2.3193,2.3131,2.3141,2.3105,2.3139,2.314,2.3122,2.3112,2.3126,2.3128,2.3126,2.3117,2.3091,2.309,2.3089,2.3088,0,2.3411,2.3364,2.3398,2.3355,2.3345,2.3378,2.3341,2.3359,2.3327,2.3348,2.335,2.33,2.3308,2.3261,2.3262,2.3237,2.3288,2.3266,2.3294,2.3286,2.3337,2.3332,2.3514,2.3534,2.3356,2.3358,2.336,0,2.3501,2.3529,2.3488,2.3493,2.3479,2.349,2.3489,2.3432,2.3435,2.3413,2.3434,2.3436,2.3434,2.345,2.3414,2.3414,2.339,2.3454,2.339,2.3402,2.3387,2.3385,2.3386,2.3467,2.3469,2.3471,2.3473,0,2.3666,2.364,2.3642,2.3635,2.3636,2.3628,2.3617,2.3625,2.3562,2.3568,2.3574,2.3573,2.3571,2.3573,2.3564,2.3548,2.35,2.3493,2.3504,2.3518,2.3532,2.3522,2.3328,2.3489,2.3487,2.3486,2.3485,2.3485,2.3792,2.3812,2.3784,2.3787,2.3772,2.3761,2.3775,2.3743,2.3747,2.3739,2.3706,2.3717,2.3694,2.3676,2.3664,2.3672,2.3641,2.3658,2.3661,2.3666,2.3673,2.3532,2.367,2.367,2.3669,2.3669,2.3669,0,2.395,2.3928,2.3932,2.3915,2.3917,2.387,2.3853,2.3858,2.3868,2.385,2.3848,2.3853,2.3854,2.3817,2.3813,2.3827,2.3804,2.3827,2.3825,2.3821,2.3703,2.3692,2.3845,2.3845,2.3845,2.3845,2.3845,2.3845,2.4033,2.4063,2.4034,2.4054,2.4032,2.4041,2.4035,2.4024,2.4009,2.4016,2.4016,2.3991,2.3965,2.3958,2.3956,2.3945,2.3945,2.3976,2.3957,2.3847,2.383,2.3813,2.3803,2.3977,2.3977,2.4074,2.4075,2.4076]},{"header":{"parameterUnit":"m.s-1","parameterCategory":1,"la1":30.2991,"la2":30.254,"lo1":-89.0895,"lo2":-89.0444,"dy":0.0017,"dx":0.0017,"nx":28,"ny":28,"refTime":"2024-07-31T03:00:00:Z","depth":0,"parameterNumber":3,"parameterNumberName":"V-component_of_WINDS"},"data":[0,0,0,0,0,0,0,0,0,0,0,0,0,0,0,0,0,0,0,0,0,0,0,0,0,0,0,0,0,0,0,0,0,0,0,0,0,0,0,0,0,0,0,0,0,0,0,0,0,0,0,0,0,0,0,0,0,0,2.7865,2.7866,0,2.8004,2.8006,2.8007,2.8026,2.8025,2.8024,2.8022,2.8162,2.8167,2.8172,0,0,0,0,0,0,0,0,0,0,0,0,0,2.761,2.7615,2.7864,2.7866,2.7868,2.8004,2.8006,2.8008,2.8026,2.8025,2.8023,2.8022,2.816,2.8166,2.8172,0,0,0,0,0,0,0,0,0,0,0,0,0,2.7732,2.7616,2.7864,2.7894,2.7898,2.8004,2.8006,2.8008,2.8027,2.8025,2.8023,2.8021,2.8158,2.8166,2.8173,2.8258,0,0,2.8196,2.8199,0,0,0,0,0,0,0,0,2.7725,2.7741,2.7888,2.7892,2.7897,2.7996,2.7967,2.8092,2.8027,2.7978,2.8022,2.802,2.8108,2.8119,2.815,2.8265,2.8271,2.8196,2.8201,2.8204,2.8206,0,0,0,0,0,0,0,2.7717,2.7735,2.792,2.789,2.7895,2.7899,2.7914,2.7991,2.8052,2.7982,2.7983,2.8,2.811,2.8143,2.8153,2.8273,2.8196,2.8203,2.8207,2.821,2.8463,2.8465,0,0,0,0,0,0,2.7703,2.7728,2.7915,2.7924,2.7804,2.7905,2.7922,2.7966,2.8051,2.8062,2.8001,2.8,2.8131,2.8145,2.8158,2.8263,2.8204,2.8211,2.8215,2.8461,2.8463,2.8466,0,0,0,0,0,0,2.7698,2.772,2.791,2.7827,2.7851,2.7911,2.7961,2.797,2.8002,2.8066,2.8077,2.8024,2.813,2.8148,2.8233,2.8268,2.8214,2.8221,2.8458,2.8462,2.8465,2.8473,0,0,0,0,0,0,2.769,2.7718,2.7752,2.7827,2.7855,2.7983,2.7963,2.7974,2.8016,2.8015,2.809,2.81,2.813,2.8222,2.8241,2.8277,2.8227,2.8455,2.846,2.8464,2.847,2.8476,2.8482,0,0,0,0,0,2.7681,2.7748,2.7753,2.7776,2.7899,2.7985,2.8001,2.8035,2.8018,2.8052,2.8093,2.8098,2.8261,2.8231,2.8252,2.8291,2.8453,2.8458,2.8463,2.8467,2.8475,2.8481,0,0,0,0,0,0,2.7673,2.7758,2.7765,2.7858,2.7915,2.7988,2.8032,2.8042,2.8103,2.81,2.8138,2.8155,2.8238,2.8273,2.8237,2.8377,2.8356,2.8365,2.8351,2.8359,2.8365,2.8354,2.8233,0,0,0,0,0,2.7683,2.7747,2.7817,2.7892,2.792,2.7971,2.801,2.8031,2.809,2.8114,2.8161,2.8217,2.8281,2.8322,2.8384,2.8475,2.8491,2.8513,2.8518,2.8523,2.853,2.858,2.859,2.8483,2.8483,2.8483,0,0,2.7702,2.7757,2.7794,2.7892,2.7938,2.8002,2.7991,2.8059,2.8107,2.8124,2.8207,2.8244,2.8309,2.8397,2.8438,2.8429,2.8564,2.8529,2.8533,2.8538,2.8586,2.8596,2.8605,2.8486,2.8486,2.8485,0,0,2.777,2.7819,2.7886,2.7933,2.8003,2.8036,2.8052,2.8125,2.815,2.8235,2.8248,2.8305,2.8414,2.846,2.8497,2.8582,2.8589,2.8602,2.8632,2.868,2.8688,2.8696,2.8725,2.8735,2.8609,2.8609,2.8609,0,2.7786,2.7884,2.7919,2.7988,2.803,2.8049,2.8117,2.816,2.8246,2.8274,2.8263,2.84,2.8446,2.8544,2.8565,2.8595,2.8613,2.8593,2.8684,2.8692,2.87,2.8728,2.8739,2.861,2.861,2.861,2.861,0,2.7898,2.7966,2.8012,2.8096,2.8143,2.8211,2.8256,2.8299,2.8316,2.835,2.8435,2.849,2.8564,2.8589,2.8605,2.8689,2.8681,2.8677,2.8656,2.8711,2.8738,2.8749,2.8611,2.8611,2.8611,2.8611,0,0,2.7965,2.8068,2.8084,2.8122,2.8201,2.8253,2.8321,2.8394,2.843,2.8489,2.8545,2.8638,2.8634,2.8677,2.8699,2.8741,2.8803,2.8731,2.8733,2.8741,2.8898,2.89,2.8912,2.8808,2.881,2.8812,2.8892,0,2.8041,2.8164,2.8198,2.8302,2.8364,2.8383,2.8442,2.8496,2.8529,2.8586,2.8623,2.8687,2.8678,2.8704,2.8746,2.8786,2.8835,2.8781,2.886,2.8862,2.8842,2.8926,2.8929,2.9001,2.8903,2.8904,2.8906,0,2.8147,2.8209,2.8318,2.8388,2.8416,2.8468,2.8537,2.8592,2.8653,2.8674,2.8722,2.874,2.881,2.8786,2.8882,2.8845,2.8879,2.8904,2.8907,2.8915,2.8887,2.8935,2.9025,2.9035,2.8923,2.8922,2.892,0,2.8183,2.8294,2.8373,2.8405,2.8489,2.8526,2.8562,2.8621,2.8663,2.8723,2.875,2.8817,2.8853,2.8904,2.8939,2.8919,2.9032,2.9011,2.9051,2.905,2.9073,2.9071,2.9169,2.9097,2.9097,2.9097,2.9096,0,2.8264,2.833,2.8391,2.844,2.8514,2.8552,2.8624,2.8661,2.8713,2.8769,2.8789,2.884,2.8884,2.8941,2.8969,2.9044,2.9061,2.9079,2.9085,2.9077,2.9074,2.9099,2.9094,2.9099,2.9099,2.9098,2.9098,0,2.8317,2.836,2.8448,2.8521,2.854,2.8592,2.8653,2.8701,2.8735,2.8805,2.8823,2.8877,2.8945,2.8986,2.9072,2.909,2.9173,2.9178,2.9152,2.9155,2.9192,2.9187,2.9308,2.9326,2.9243,2.9244,2.9244,0,2.8365,2.8416,2.8494,2.8534,2.8571,2.8634,2.8676,2.8715,2.8758,2.8832,2.887,2.894,2.8997,2.9105,2.9151,2.9216,2.9222,2.926,2.9232,2.9221,2.9221,2.9217,2.9222,2.9264,2.9265,2.9265,2.9266,0,2.8446,2.8464,2.8526,2.8594,2.8645,2.87,2.8756,2.8786,2.8835,2.8882,2.8952,2.8997,2.9085,2.9153,2.9223,2.9259,2.927,2.9274,2.9287,2.9278,2.9261,2.9269,2.9164,2.9271,2.9271,2.927,2.927,2.927,2.8497,2.8543,2.8605,2.8672,2.8718,2.8769,2.8818,2.8858,2.8918,2.8993,2.9013,2.9086,2.9145,2.924,2.9277,2.9335,2.9328,2.9347,2.9351,2.9355,2.9355,2.9253,2.9347,2.9347,2.9347,2.9347,2.9347,0,2.8577,2.8618,2.868,2.8757,2.881,2.8817,2.8879,2.8922,2.8986,2.9041,2.9098,2.9178,2.9244,2.9296,2.9363,2.9399,2.9406,2.9415,2.9412,2.942,2.9357,2.9339,2.9409,2.9409,2.9409,2.9409,2.9409,2.9409,2.8625,2.8704,2.873,2.8831,2.8871,2.8944,2.8978,2.9025,2.9069,2.9158,2.9214,2.9247,2.93,2.9372,2.9433,2.9446,2.9469,2.9478,2.9492,2.9432,2.9425,2.9418,2.9402,2.9483,2.9483,2.955,2.9551,2.9551]}]]